EHI
79 80 77 74 71 70 68 64 59 52 49 44 37 33 34 34 31 29 30 29 22 15 10 6 6 6 4 3 1 0 0 0 0 0 0 0 0 1 2 3 2 2 1
75 78 78 75 72 70 66 62 56 50 46 43 35 32 34 34 31 30 32 29 22 15 10 7 5 4 5 4 3 1 0 0 0 0 0 0 0 0 1 2 1 1 1
68 73 76 73 70 68 63 57 53 47 42 38 33 30 33 33 30 31 31 28 23 16 11 9 5 5 6 6 4 1 0 0 0 0 0 0 0 0 0 0 0 0 1
61 66 70 68 65 62 58 53 50 44 37 33 30 28 30 30 30 31 33 30 25 18 13 10 7 6 6 5 3 1 1 1 0 0 0 0 0 0 0 0 0 0 0
55 59 62 60 57 55 52 50 47 42 35 30 28 27 28 31 33 34 35 32 26 20 15 11 9 8 5 4 2 1 2 2 1 0 0 0 0 0 0 0 0 0 0
47 51 54 52 50 48 47 45 44 41 36 30 27 29 32 34 35 34 30 27 24 22 17 12 11 10 7 5 4 3 3 4 2 0 0 0 0 0 0 0 0 0 0
38 41 45 46 45 44 42 41 40 39 35 30 28 29 32 33 32 28 23 19 19 20 18 15 14 13 10 9 8 6 4 4 2 1 1 1 0 1 2 1 0 0 0
34 35 39 42 41 40 41 39 37 36 33 29 27 25 27 28 27 26 22 17 15 17 20 20 17 14 11 10 9 7 4 4 3 3 2 2 1 2 3 3 1 0 0
32 31 32 37 39 40 40 38 37 35 31 27 24 21 22 23 22 23 21 16 14 18 24 23 19 15 12 10 9 6 4 4 4 3 3 3 3 2 3 3 2 1 1
30 28 28 33 39 40 37 36 36 34 29 24 21 19 19 19 19 18 16 15 16 20 25 23 18 13 12 11 10 7 5 3 3 3 4 4 4 2 2 3 3 3 2
32 32 30 34 39 38 34 33 33 30 25 22 21 21 21 21 20 18 16 16 19 22 24 22 17 12 10 11 10 8 6 4 3 3 3 4 4 3 2 1 2 2 2
40 41 40 40 41 38 34 30 28 27 24 23 25 27 27 27 26 24 22 21 21 20 20 18 14 11 9 9 8 7 6 4 3 3 3 3 4 3 2 1 1 1 1
44 49 50 48 46 43 37 30 26 26 26 25 28 31 32 31 30 29 29 26 22 19 17 15 13 10 8 7 7 7 7 6 4 3 3 3 3 3 3 2 1 0 0
42 49 55 54 50 48 43 34 28 27 26 26 27 31 31 29 28 30 31 29 23 19 16 14 12 10 8 7 7 8 9 9 7 4 4 3 3 3 3 2 1 0 0
37 44 53 55 52 48 44 38 34 30 27 27 28 28 27 26 25 26 27 26 23 19 17 15 12 9 7 6 7 8 9 10 8 5 4 3 3 2 2 1 0 0 0
37 41 48 51 50 46 43 40 36 31 29 30 29 27 25 23 22 22 23 24 23 20 18 19 16 10 5 3 3 4 6 9 9 7 5 3 1 1 1 0 0 0 0
42 42 43 46 47 44 43 40 35 31 31 31 30 28 26 23 21 21 23 26 27 25 24 25 22 14 6 1 0 1 4 7 9 8 6 3 1 0 0 0 0 0 0
48 46 41 40 42 42 42 38 34 32 31 30 30 28 27 26 25 25 28 31 34 32 29 28 26 18 7 1 0 0 2 5 7 7 6 4 2 1 1 1 0 0 1
50 48 42 38 39 39 39 37 33 32 32 31 29 28 29 30 29 30 32 36 37 35 31 28 25 18 8 2 0 0 2 4 5 5 6 5 3 1 1 1 1 1 1
46 45 43 41 40 38 38 38 36 34 33 32 30 29 29 29 30 32 34 34 34 32 28 23 20 16 9 3 0 0 1 2 3 3 4 3 2 1 0 0 1 1 1
37 40 42 41 39 38 39 39 39 38 36 35 33 30 28 25 25 28 30 28 26 23 20 17 15 11 6 2 0 0 0 0 1 1 2 1 0 0 0 0 0 0 0
27 30 33 33 33 34 37 37 36 36 34 31 29 26 23 20 19 21 23 21 18 15 12 9 8 5 2 1 0 0 0 0 0 0 1 1 0 0 0 0 0 0 0
17 18 20 22 23 25 27 27 26 24 23 21 19 18 16 14 13 13 13 13 11 8 5 3 3 1 0 0 0 0 0 0 0 0 0 0 0 0 0 0 0 0 0
8 8 10 13 14 16 17 17 16 14 12 12 11 10 9 8 7 6 5 5 5 3 2 2 1 0 0 0 0 0 0 0 0 0 0 0 0 0 0 0 0 0 0
2 3 5 7 8 8 9 10 10 9 9 8 7 5 4 3 2 1 1 1 1 1 1 1 1 0 0 0 0 0 0 0 0 0 0 0 0 0 0 0 0 0 0
0 1 2 3 3 4 6 7 8 8 7 6 5 4 3 1 0 0 0 0 0 0 0 0 0 0 0 0 0 0 0 0 0 0 0 0 0 0 0 0 0 0 0
Wind_Speed
10 11 11 11 11 10 10 10 10 10 9 7 7 6 5 5 4 5 7 7 5 5 3 3 3 2 2 2 3 2 2 2 1 0 1 2 3 3 3 2 2 3 4
10 11 11 11 11 11 10 10 9 11 11 8 6 6 6 5 4 4 6 7 6 5 5 4 4 3 2 2 2 1 1 2 2 1 1 1 1 2 4 3 3 3 3
11 12 12 11 11 11 11 10 10 10 10 9 6 6 5 4 4 5 5 6 6 5 3 5 3 3 3 3 3 2 2 1 1 1 0 0 1 2 2 4 3 3 2
10 11 12 11 10 10 10 9 9 9 10 10 9 10 8 7 6 5 5 6 6 6 5 5 4 3 2 4 4 4 2 2 2 2 1 1 1 0 1 2 3 4 3
10 10 11 10 10 10 10 9 9 9 10 10 10 10 8 6 5 6 7 6 5 5 6 5 4 3 2 3 2 2 1 1 2 1 1 2 1 2 1 2 2 2 3
9 9 10 10 10 10 10 10 10 10 10 10 10 10 9 8 8 8 8 6 5 4 6 5 4 4 3 3 3 2 2 1 2 2 1 1 1 2 2 2 3 3 3
9 9 9 10 10 10 10 10 11 10 11 11 10 10 9 9 9 8 8 7 6 5 6 6 4 4 3 4 3 3 2 2 2 2 2 2 2 1 1 1 1 1 2
9 9 9 9 10 11 11 11 11 11 11 11 9 9 9 7 6 7 7 6 5 5 6 6 5 4 4 5 4 3 4 3 3 4 2 2 3 2 1 1 1 1 2
9 9 9 10 10 10 10 11 11 10 10 10 9 8 8 7 7 7 6 5 4 6 7 7 6 6 5 4 4 3 3 3 3 4 4 3 3 2 2 2 1 1 2
9 9 8 9 10 9 9 10 10 10 9 9 9 8 8 7 6 6 7 6 5 5 7 7 6 6 5 5 4 4 3 3 3 3 3 3 3 2 2 2 2 2 2
9 9 8 8 9 9 10 9 9 8 8 9 8 8 7 7 7 6 6 6 5 5 6 6 6 6 6 6 5 5 4 5 5 5 4 4 4 3 3 2 2 2 2
8 8 7 7 8 9 9 9 9 9 8 8 8 7 7 7 7 7 6 6 6 6 6 6 6 7 7 6 6 6 6 6 6 6 5 5 5 5 4 3 3 2 2
8 8 7 6 6 7 8 8 8 8 8 8 8 7 7 7 7 6 6 6 6 6 6 6 6 6 5 6 6 6 6 6 6 5 5 5 5 5 4 4 4 3 4
7 7 7 7 5 5 6 7 7 7 8 7 7 7 7 7 6 5 5 5 5 6 6 6 5 5 5 4 5 6 5 5 5 5 5 5 5 5 4 5 4 4 4
8 7 7 7 7 5 5 6 6 6 6 7 7 7 6 6 6 5 5 5 5 6 5 4 4 4 4 5 5 5 6 5 5 5 5 5 5 5 4 4 3 4 4
7 8 7 7 7 6 6 6 6 6 6 5 5 6 6 5 5 5 5 5 4 4 4 4 4 4 4 3 3 3 4 4 4 5 5 5 5 5 6 6 6 4 5
7 7 6 7 6 6 5 5 5 6 6 5 5 5 5 5 4 5 5 4 4 4 3 4 4 3 0 0 2 3 3 3 3 3 4 5 5 4 4 6 9 8 8
6 6 6 6 6 6 6 6 6 6 6 5 4 4 5 5 5 4 4 3 3 3 3 3 2 2 1 0 1 2 2 2 2 2 2 2 3 3 2 4 5 5 5
6 5 6 6 6 6 6 6 6 6 6 5 5 4 4 4 4 4 3 3 3 3 2 2 3 3 3 3 3 2 1 1 2 1 2 1 1 2 3 3 4 4 4
6 6 7 8 7 6 7 7 7 6 5 5 5 5 5 4 4 4 3 3 3 3 3 3 4 5 5 6 6 3 1 1 1 0 1 3 2 3 3 2 3 4 4
9 9 8 7 7 6 7 8 7 6 5 6 6 6 6 5 5 4 3 3 3 4 4 5 6 6 6 6 6 5 3 3 2 2 1 2 4 4 4 3 3 4 4
10 9 9 9 8 7 8 9 8 6 6 7 6 6 6 5 5 5 4 4 3 4 4 5 5 5 5 6 6 6 5 5 3 3 3 2 3 3 4 3 4 5 5
11 10 11 11 10 9 9 10 8 7 7 8 8 8 8 7 6 6 6 4 4 3 3 3 4 5 5 5 6 5 5 5 3 3 4 4 4 4 4 4 5 4 3
10 10 11 12 11 11 10 9 8 8 8 9 8 8 9 9 9 8 8 7 7 6 5 5 5 5 5 5 5 4 3 4 3 4 5 6 5 4 5 4 3 3 3
10 10 11 11 11 10 10 10 8 8 8 8 7 8 8 8 8 9 8 8 7 6 6 6 5 5 5 4 5 4 4 4 4 5 5 3 2 2 2 2 2 2 1
10 11 11 11 11 11 10 9 8 8 8 7 6 6 6 6 6 7 8 12 10 11 12 10 8 6 6 4 6 7 7 7 6 4 4 3 3 4 4 4 3 3 3
Wind_Direction
160 156 159 158 156 159 164 167 172 170 166 168 173 176 173 170 166 160 152 158 160 155 169 138 144 172 144 144 151 148 191 217 203 200 185 197 190 179 174 186 170 175 171
158 156 160 163 164 164 170 175 177 171 170 173 174 176 169 170 166 160 151 158 155 160 170 144 165 166 144 148 156 146 215 232 184 197 200 191 189 211 186 166 182 185 175
166 161 166 169 167 168 176 179 176 172 173 172 172 174 161 164 167 158 159 162 161 167 155 153 166 165 164 161 181 192 205 245 235 211 214 206 179 187 189 189 175 171 186
159 160 163 169 171 170 172 169 171 177 179 178 179 176 175 173 172 164 158 159 164 163 160 160 161 166 167 158 192 190 199 206 247 228 205 211 126 184 164 200 169 175 180
149 154 161 167 171 169 169 169 169 177 181 183 182 181 179 173 163 156 152 159 165 168 167 163 162 171 186 163 171 147 188 223 246 259 220 202 197 235 195 195 180 188 187
141 146 156 161 165 165 168 169 170 174 178 184 186 186 181 174 167 162 161 165 166 174 169 167 168 182 181 158 150 161 194 244 304 317 306 233 218 229 220 200 200 195 194
144 149 155 159 161 166 171 171 170 176 181 184 188 189 183 176 172 168 170 172 172 177 174 173 174 184 167 161 168 183 222 212 242 281 295 304 278 277 273 217 231 210 183
144 147 153 158 162 167 170 171 172 175 179 181 183 184 180 179 178 177 172 181 180 174 163 168 175 184 182 184 177 199 204 201 220 246 259 303 299 304 292 281 270 256 227
141 148 153 159 162 165 168 172 171 173 177 178 176 180 181 185 180 171 175 183 180 166 163 172 178 187 191 187 175 218 217 182 208 239 229 238 274 268 277 286 274 258 267
144 144 149 153 156 160 164 164 165 167 170 170 173 178 182 185 178 177 184 184 186 173 162 176 180 186 186 190 195 215 209 201 220 239 249 231 266 272 262 269 275 269 271
138 140 144 146 144 149 151 153 155 157 164 169 174 173 174 182 180 185 190 183 178 170 175 184 185 189 189 192 199 219 208 209 221 233 229 223 254 284 294 267 257 258 256
123 127 131 134 141 144 149 151 157 162 165 167 170 172 177 180 180 186 186 181 181 181 185 190 190 197 198 194 198 219 221 215 219 228 232 226 232 233 262 283 278 264 255
119 122 122 124 134 140 143 147 154 159 163 164 168 170 180 185 185 183 181 183 185 188 193 193 195 203 202 199 203 215 225 226 225 223 225 228 233 234 237 247 267 273 264
126 126 129 131 130 131 136 144 152 155 160 163 168 172 178 181 180 180 182 184 187 191 197 194 197 201 206 208 211 216 220 226 230 228 228 229 228 227 236 245 249 264 273
135 133 136 136 137 139 139 145 147 147 153 158 163 167 168 171 175 177 182 180 182 193 193 188 193 200 210 220 218 218 221 218 229 233 230 231 229 224 221 244 245 256 259
138 136 139 137 140 146 147 147 148 145 142 146 150 150 156 163 168 169 173 176 181 187 182 185 186 198 219 227 215 221 238 221 227 239 240 240 229 220 220 235 245 246 251
126 125 133 134 136 142 137 137 137 138 139 141 149 148 153 159 166 177 177 179 181 180 180 184 184 186 231 285 189 208 238 242 235 243 248 253 255 225 223 231 237 243 242
106 114 125 128 132 134 136 134 134 130 131 131 137 144 155 160 160 163 167 170 164 168 174 170 162 144 103 68 203 232 225 257 270 269 266 258 292 311 297 261 246 241 241
85 102 111 119 118 120 122 123 124 125 127 132 133 131 136 147 149 153 150 154 155 157 159 147 134 114 74 65 59 31 271 290 301 319 338 332 309 335 318 281 273 264 260
73 81 93 93 98 110 118 116 119 117 117 119 118 115 107 115 126 128 124 121 121 122 116 115 107 100 83 64 57 29 355 343 333 345 39 52 37 3 353 312 290 279 284
74 69 70 78 82 93 101 105 106 108 112 109 103 101 104 103 94 94 98 102 108 108 101 96 89 85 80 73 55 38 12 352 341 349 38 52 41 19 354 325 299 291 299
78 75 71 69 66 76 90 94 89 92 96 96 93 89 85 86 89 87 84 84 94 109 111 109 105 95 80 69 58 44 29 11 5 8 18 21 355 329 311 299 292 300 299
76 74 75 70 61 62 74 82 75 78 86 86 81 79 75 62 60 67 70 70 67 72 83 91 92 85 77 65 48 31 18 13 4 5 359 328 300 294 280 264 278 289 280
80 79 79 76 67 61 62 67 70 73 78 78 79 79 76 69 57 52 52 50 40 41 48 53 60 68 57 37 18 8 8 360 355 345 320 291 272 275 290 287 257 245 260
80 79 79 77 73 68 63 61 63 69 75 75 72 78 79 77 72 65 55 59 51 52 56 49 52 53 51 25 6 3 0 353 350 329 306 296 298 283 280 292 303 300 304
83 82 80 79 76 71 64 56 54 61 68 73 67 72 82 85 92 95 80 58 69 68 67 66 71 73 66 34 14 3 347 332 334 327 312 332 351 351 348 344 344 351 356